[[{"header":{"parameterUnit":"m.s-1","parameterCategory":1,"la1":30.2991,"la2":30.254,"lo1":-89.0895,"lo2":-89.0444,"dy":0.0017,"dx":0.0017,"nx":28,"ny":28,"refTime":"2023-09-23T21:00:00:Z","depth":0,"parameterNumber":2,"parameterNumberName":"U-component_of_WINDS"},"data":[0,0,0,0,0,0,0,0,0,0,0,0,0,0,0,0,0,0,0,0,0,0,0,0,0,0,0,0,0,0,0,0,0,0,0,0,0,0,0,0,0,0,0,0,0,0,0,0,0,0,0,0,0,0,0,0,0,0,-0.17,-0.17,0,-0.1651,-0.1651,-0.165,-0.1616,-0.1616,-0.1616,-0.1615,-0.1568,-0.1567,-0.1566,0,0,0,0,0,0,0,0,0,0,0,0,0,-0.1767,-0.1766,-0.17,-0.17,-0.1699,-0.1652,-0.1651,-0.165,-0.1616,-0.1616,-0.1615,-0.1615,-0.1568,-0.1567,-0.1566,0,0,0,0,0,0,0,0,0,0,0,0,0,-0.1731,-0.1766,-0.1701,-0.1676,-0.1674,-0.1652,-0.1651,-0.165,-0.1616,-0.1616,-0.1615,-0.1615,-0.1569,-0.1567,-0.1566,-0.1565,0,0,-0.1561,-0.156,0,0,0,0,0,0,0,0,-0.1733,-0.1728,-0.1681,-0.1678,-0.1675,-0.1639,-0.1657,-0.1622,-0.1616,-0.1638,-0.1615,-0.1615,-0.1592,-0.1589,-0.1581,-0.1562,-0.156,-0.1561,-0.156,-0.1559,-0.1559,0,0,0,0,0,0,0,-0.1735,-0.173,-0.1681,-0.168,-0.1676,-0.1669,-0.1663,-0.165,-0.1618,-0.1636,-0.1634,-0.1628,-0.1591,-0.1582,-0.1579,-0.156,-0.1561,-0.156,-0.1559,-0.1558,-0.1539,-0.1539,0,0,0,0,0,0,-0.1741,-0.1732,-0.1683,-0.168,-0.1703,-0.1668,-0.1662,-0.1651,-0.1618,-0.1613,-0.1628,-0.1627,-0.1585,-0.1581,-0.1577,-0.1575,-0.1559,-0.1558,-0.1557,-0.1539,-0.1539,-0.154,0,0,0,0,0,0,-0.1743,-0.1737,-0.1685,-0.1705,-0.1698,-0.1667,-0.1656,-0.1651,-0.1642,-0.1612,-0.1607,-0.1625,-0.1584,-0.158,-0.1568,-0.1573,-0.1557,-0.1556,-0.1538,-0.1539,-0.1539,-0.1569,0,0,0,0,0,0,-0.1745,-0.1738,-0.1736,-0.1705,-0.1697,-0.1675,-0.1656,-0.165,-0.1639,-0.1636,-0.1608,-0.1603,-0.1584,-0.1571,-0.1567,-0.157,-0.1555,-0.1538,-0.1538,-0.1539,-0.1567,-0.157,-0.1573,0,0,0,0,0,-0.1747,-0.1747,-0.1737,-0.1731,-0.1695,-0.1676,-0.1671,-0.1648,-0.164,-0.1639,-0.162,-0.1604,-0.1572,-0.157,-0.1565,-0.1568,-0.1537,-0.1538,-0.1539,-0.1566,-0.157,-0.1573,0,0,0,0,0,0,-0.1781,-0.1743,-0.1731,-0.172,-0.1701,-0.167,-0.1668,-0.1653,-0.1637,-0.1635,-0.1608,-0.1602,-0.1593,-0.1579,-0.1577,-0.1566,-0.1553,-0.1553,-0.1575,-0.1578,-0.1581,-0.1585,-0.1554,0,0,0,0,0,-0.1787,-0.1774,-0.1741,-0.1736,-0.1727,-0.1699,-0.169,-0.1674,-0.1654,-0.1646,-0.1626,-0.1608,-0.1594,-0.1585,-0.1571,-0.1565,-0.1559,-0.1565,-0.1568,-0.157,-0.1571,-0.1568,-0.157,-0.1542,-0.1542,-0.1542,0,0,-0.18,-0.1777,-0.1771,-0.1742,-0.1725,-0.1713,-0.1693,-0.1681,-0.1672,-0.1644,-0.1632,-0.1617,-0.1595,-0.1586,-0.1582,-0.1575,-0.1577,-0.1571,-0.1573,-0.1573,-0.1569,-0.1571,-0.1574,-0.1543,-0.1543,-0.1543,0,0,-0.1817,-0.1798,-0.1791,-0.1775,-0.175,-0.1731,-0.173,-0.17,-0.1689,-0.1676,-0.1655,-0.1645,-0.1621,-0.1606,-0.1596,-0.1607,-0.1592,-0.1603,-0.1618,-0.1615,-0.1617,-0.1619,-0.1624,-0.1626,-0.1603,-0.1604,-0.1604,0,-0.1837,-0.1817,-0.179,-0.1779,-0.1768,-0.1741,-0.1734,-0.172,-0.1692,-0.1685,-0.1677,-0.1647,-0.163,-0.1618,-0.1621,-0.1613,-0.1611,-0.1607,-0.1619,-0.1621,-0.1622,-0.1627,-0.1628,-0.1605,-0.1605,-0.1605,-0.1605,0,-0.1842,-0.1829,-0.1827,-0.1799,-0.1787,-0.1779,-0.1752,-0.1743,-0.1728,-0.171,-0.1698,-0.1677,-0.1658,-0.1653,-0.1639,-0.164,-0.1636,-0.1624,-0.1611,-0.1627,-0.1631,-0.1632,-0.1607,-0.1607,-0.1606,-0.1606,0,0,-0.1881,-0.1838,-0.1838,-0.1825,-0.1795,-0.1784,-0.1775,-0.1755,-0.1749,-0.173,-0.1722,-0.1703,-0.1691,-0.1679,-0.1663,-0.166,-0.1671,-0.1648,-0.1647,-0.1654,-0.1672,-0.1683,-0.1685,-0.1661,-0.1661,-0.1661,-0.1675,0,-0.1894,-0.1875,-0.1851,-0.184,-0.1828,-0.1802,-0.1794,-0.1775,-0.1759,-0.1747,-0.1728,-0.1715,-0.1701,-0.1693,-0.1689,-0.1671,-0.1675,-0.1669,-0.1655,-0.1655,-0.1663,-0.1687,-0.1698,-0.1711,-0.1676,-0.1676,-0.1676,0,-0.1908,-0.189,-0.1878,-0.1848,-0.1842,-0.1836,-0.1816,-0.1804,-0.1783,-0.1771,-0.1757,-0.1739,-0.1729,-0.1716,-0.1703,-0.1699,-0.1692,-0.1682,-0.1682,-0.1681,-0.1668,-0.1688,-0.1715,-0.1718,-0.1678,-0.1678,-0.1678,0,-0.1939,-0.1911,-0.19,-0.189,-0.1855,-0.1851,-0.1837,-0.1815,-0.1805,-0.1788,-0.1781,-0.1763,-0.1754,-0.1741,-0.1719,-0.1711,-0.1708,-0.1693,-0.1699,-0.17,-0.1701,-0.1701,-0.1728,-0.1694,-0.1694,-0.1694,-0.1693,0,-0.1957,-0.1952,-0.1913,-0.1907,-0.19,-0.1872,-0.1866,-0.185,-0.183,-0.1821,-0.1797,-0.1789,-0.1759,-0.1748,-0.1731,-0.1723,-0.1719,-0.171,-0.1705,-0.1712,-0.1714,-0.1708,-0.1707,-0.1694,-0.1694,-0.1694,-0.1694,0,-0.1991,-0.1965,-0.1952,-0.192,-0.1912,-0.1908,-0.1881,-0.1874,-0.1856,-0.1845,-0.184,-0.1812,-0.1798,-0.1774,-0.1753,-0.1741,-0.1737,-0.1728,-0.1744,-0.1741,-0.1749,-0.1749,-0.1775,-0.1777,-0.174,-0.174,-0.1741,0,-0.2006,-0.2,-0.1967,-0.1958,-0.1945,-0.1931,-0.192,-0.1893,-0.1883,-0.1858,-0.1854,-0.1838,-0.1823,-0.1802,-0.178,-0.1764,-0.1756,-0.1766,-0.1754,-0.1761,-0.1758,-0.1759,-0.1759,-0.177,-0.177,-0.1771,-0.1771,0,-0.2034,-0.2022,-0.2006,-0.1986,-0.1973,-0.1957,-0.1939,-0.1934,-0.1903,-0.1893,-0.1877,-0.1866,-0.1844,-0.1828,-0.1809,-0.1795,-0.1779,-0.1775,-0.1775,-0.1784,-0.1793,-0.1789,-0.1753,-0.1775,-0.1774,-0.1774,-0.1774,-0.1774,-0.206,-0.2054,-0.2029,-0.2013,-0.1996,-0.198,-0.1973,-0.1953,-0.1939,-0.1918,-0.1903,-0.1889,-0.1867,-0.1839,-0.1827,-0.1816,-0.1808,-0.1809,-0.181,-0.1811,-0.1814,-0.1794,-0.1812,-0.1812,-0.1812,-0.1812,-0.1812,0,-0.2088,-0.2071,-0.2056,-0.2031,-0.2019,-0.2002,-0.1982,-0.1973,-0.196,-0.1941,-0.1927,-0.1909,-0.1894,-0.187,-0.1854,-0.185,-0.1842,-0.1846,-0.1847,-0.1844,-0.1821,-0.1823,-0.1853,-0.1853,-0.1853,-0.1853,-0.1853,-0.1853,-0.2102,-0.2091,-0.2076,-0.2057,-0.204,-0.2025,-0.2014,-0.2,-0.1984,-0.1966,-0.1952,-0.1936,-0.1916,-0.1897,-0.1883,-0.1876,-0.1872,-0.1879,-0.1871,-0.185,-0.1846,-0.1842,-0.1844,-0.1878,-0.1878,-0.1895,-0.1895,-0.1895]},{"header":{"parameterUnit":"m.s-1","parameterCategory":1,"la1":30.2991,"la2":30.254,"lo1":-89.0895,"lo2":-89.0444,"dy":0.0017,"dx":0.0017,"nx":28,"ny":28,"refTime":"2023-09-23T21:00:00:Z","depth":0,"parameterNumber":3,"parameterNumberName":"V-component_of_WINDS"},"data":[0,0,0,0,0,0,0,0,0,0,0,0,0,0,0,0,0,0,0,0,0,0,0,0,0,0,0,0,0,0,0,0,0,0,0,0,0,0,0,0,0,0,0,0,0,0,0,0,0,0,0,0,0,0,0,0,0,0,3.445,3.445,0,3.4424,3.4424,3.4424,3.4388,3.4387,3.4387,3.4386,3.4358,3.4358,3.4358,0,0,0,0,0,0,0,0,0,0,0,0,0,3.4469,3.4469,3.445,3.445,3.445,3.4424,3.4424,3.4424,3.4388,3.4387,3.4386,3.4386,3.4358,3.4358,3.4357,0,0,0,0,0,0,0,0,0,0,0,0,0,3.4454,3.4469,3.445,3.4429,3.4427,3.4424,3.4424,3.4423,3.4388,3.4387,3.4386,3.4385,3.4358,3.4358,3.4357,3.4374,0,0,3.4357,3.4356,0,0,0,0,0,0,0,0,3.4455,3.4453,3.4432,3.443,3.4428,3.4408,3.442,3.4407,3.4388,3.4403,3.4386,3.4385,3.4375,3.4374,3.4371,3.4372,3.4371,3.4357,3.4356,3.4356,3.4356,0,0,0,0,0,0,0,3.4456,3.4454,3.444,3.4432,3.4429,3.442,3.4417,3.4417,3.4394,3.4401,3.4399,3.4396,3.4374,3.4371,3.437,3.4371,3.4357,3.4356,3.4356,3.4356,3.4385,3.4385,0,0,0,0,0,0,3.446,3.4455,3.4441,3.4439,3.4439,3.4421,3.4417,3.4416,3.4394,3.439,3.4397,3.4395,3.4372,3.437,3.4369,3.4385,3.4356,3.4356,3.4356,3.4384,3.4385,3.4386,0,0,0,0,0,0,3.4461,3.4459,3.4442,3.4446,3.4444,3.4422,3.442,3.4415,3.4412,3.4391,3.4387,3.4398,3.4371,3.4369,3.4373,3.4384,3.4356,3.4356,3.4383,3.4384,3.4385,3.442,0,0,0,0,0,0,3.4461,3.446,3.4465,3.4447,3.4443,3.4447,3.4421,3.4416,3.4412,3.4409,3.4391,3.4387,3.437,3.4373,3.4372,3.4383,3.4355,3.4381,3.4383,3.4385,3.4418,3.4422,3.4426,0,0,0,0,0,3.4462,3.4476,3.4466,3.4464,3.445,3.4447,3.4445,3.4426,3.4413,3.4419,3.4405,3.4388,3.4384,3.4374,3.4373,3.4383,3.4381,3.4383,3.4385,3.4416,3.4421,3.4426,0,0,0,0,0,0,3.4495,3.4473,3.4462,3.447,3.4461,3.4441,3.4447,3.4433,3.4427,3.4424,3.44,3.4396,3.4403,3.4394,3.4384,3.4398,3.4379,3.4381,3.4403,3.4409,3.4413,3.4414,3.4355,0,0,0,0,0,3.4504,3.4504,3.4484,3.4493,3.4489,3.447,3.4467,3.4454,3.4443,3.4439,3.4426,3.4416,3.4412,3.441,3.4406,3.4417,3.4412,3.4424,3.4428,3.4432,3.4433,3.4438,3.4443,3.4393,3.4393,3.4393,0,0,3.4521,3.4509,3.451,3.45,3.4491,3.4491,3.4466,3.4467,3.4467,3.4439,3.4441,3.4432,3.4419,3.4427,3.443,3.4419,3.4447,3.4435,3.4438,3.4437,3.4441,3.4446,3.445,3.4394,3.4394,3.4394,0,0,3.4551,3.4543,3.4549,3.4541,3.4529,3.4516,3.4518,3.4501,3.4494,3.4496,3.4475,3.4475,3.447,3.4462,3.4457,3.4487,3.447,3.4486,3.4508,3.4513,3.4517,3.4521,3.453,3.4534,3.4488,3.4488,3.4488,0,3.4574,3.4573,3.4554,3.4556,3.4552,3.4529,3.4535,3.4528,3.4515,3.4513,3.4503,3.4496,3.4486,3.4491,3.4499,3.4496,3.4497,3.4487,3.4518,3.4522,3.4524,3.4533,3.4537,3.449,3.449,3.449,3.449,0,3.4601,3.4601,3.4607,3.4596,3.4593,3.4597,3.4579,3.4579,3.4566,3.4554,3.4558,3.4545,3.4538,3.4539,3.4526,3.4543,3.4537,3.4523,3.4503,3.4531,3.4539,3.4543,3.4493,3.4492,3.4492,3.4491,0,0,3.4648,3.4628,3.4631,3.4625,3.4611,3.4611,3.4615,3.4608,3.4608,3.4601,3.4602,3.46,3.4587,3.4582,3.4568,3.4573,3.4597,3.4559,3.4558,3.4565,3.4614,3.4623,3.4627,3.4587,3.4588,3.4588,3.4614,0,3.4675,3.468,3.4664,3.4673,3.4672,3.4651,3.4654,3.4646,3.4636,3.4634,3.4623,3.4621,3.4605,3.4602,3.4606,3.4593,3.4606,3.4591,3.4588,3.4588,3.4589,3.4631,3.4641,3.4666,3.4617,3.4618,3.4618,0,3.4706,3.47,3.4709,3.4695,3.4695,3.4698,3.4691,3.469,3.4681,3.4673,3.4668,3.4653,3.4656,3.4639,3.4642,3.4633,3.4631,3.4625,3.4625,3.4622,3.4603,3.4628,3.4674,3.4677,3.4623,3.4623,3.4622,0,3.4738,3.4734,3.4738,3.4735,3.4719,3.4722,3.4715,3.4705,3.4702,3.4697,3.4695,3.469,3.4687,3.4683,3.4667,3.4657,3.4672,3.4654,3.4665,3.4666,3.4667,3.4667,3.4711,3.467,3.4669,3.4669,3.4669,0,3.4768,3.4774,3.4753,3.4755,3.4762,3.4744,3.4751,3.4742,3.4734,3.4735,3.4717,3.4718,3.4698,3.4696,3.4684,3.4688,3.4688,3.4681,3.4677,3.4681,3.4682,3.4678,3.4675,3.467,3.467,3.467,3.467,0,3.4804,3.479,3.4794,3.4779,3.4776,3.4781,3.4768,3.477,3.476,3.4761,3.4761,3.4744,3.4742,3.4727,3.4721,3.4713,3.4721,3.4715,3.4724,3.4722,3.4733,3.4732,3.4775,3.4779,3.4736,3.4737,3.4737,0,3.4823,3.4827,3.4813,3.4813,3.4807,3.4807,3.4804,3.4788,3.4786,3.4777,3.478,3.4777,3.4773,3.4771,3.4758,3.4754,3.4747,3.4762,3.4746,3.475,3.4745,3.4744,3.4744,3.4765,3.4765,3.4766,3.4766,0,3.4857,3.4851,3.4848,3.4844,3.4842,3.4837,3.4832,3.4833,3.4815,3.4814,3.4812,3.4809,3.4804,3.4801,3.4795,3.4788,3.4774,3.4772,3.4774,3.4777,3.4782,3.4778,3.4732,3.4771,3.477,3.477,3.477,3.4769,3.4884,3.4887,3.4878,3.4876,3.4871,3.4866,3.4867,3.4858,3.4856,3.4851,3.4842,3.4841,3.4833,3.4824,3.4818,3.4818,3.4809,3.4813,3.4813,3.4814,3.4816,3.4784,3.4817,3.4817,3.4816,3.4816,3.4816,0,3.4916,3.491,3.4909,3.4902,3.4901,3.489,3.4883,3.4883,3.4883,3.4876,3.4874,3.4872,3.4869,3.4857,3.4853,3.4855,3.4849,3.4854,3.4853,3.4852,3.4824,3.4822,3.486,3.486,3.486,3.486,3.486,3.486,3.4933,3.4937,3.493,3.4931,3.4925,3.4924,3.4922,3.4918,3.4913,3.4912,3.491,3.4903,3.4894,3.489,3.4887,3.4884,3.4882,3.489,3.4884,3.4858,3.4854,3.485,3.4847,3.489,3.489,3.4912,3.4912,3.4912]}]]